TimeCET,TemperatureF,Dew PointF,Humidity,Sea Level PressureIn,VisibilityMPH,Wind Direction,Wind SpeedMPH,Gust SpeedMPH,PrecipitationIn,Events,Conditions,WindDirDegrees,DateUTC
12:00 AM,32,31,93,30.22,,NNW,4.5,,,,,340,2013-12-29 23:00:00
1:00 AM,33,31,91,30.23,,North,2.2,,,,,0,2013-12-30 00:00:00
1:32 AM,33.8,32.0,93,30.24,-9999.0,North,-9999.0,-,N/A,,Unknown,0,2013-12-30 00:32:00
2:00 AM,33,32,96,30.25,,NNW,4.5,,,,,330,2013-12-30 01:00:00
3:00 AM,32,31,96,30.26,,Calm,Calm,,,,,,2013-12-30 02:00:00
4:00 AM,31,30,93,30.26,,Calm,Calm,,,,,,2013-12-30 03:00:00
5:00 AM,31,30,95,30.27,,NW,4.5,,,,,310,2013-12-30 04:00:00
5:11 AM,32.0,30.2,93,30.27,1.9,WNW,5.8,-,N/A,,Overcast,300,2013-12-30 04:11:00
5:15 AM,32.0,30.2,93,30.27,1.7,WNW,5.8,-,N/A,,Overcast,300,2013-12-30 04:15:00
5:45 AM,30.2,30.2,100,30.27,1.7,ENE,2.3,-,N/A,,Overcast,60,2013-12-30 04:45:00
6:00 AM,31,30,93,30.29,2,ENE,2.2,,,,Mist,60,2013-12-30 05:00:00
6:00 AM,-9999,-9999,N/A,-9999,2.2,NNE,6.9,-,N/A,,Mostly Cloudy,20,2013-12-30 05:00:00
6:15 AM,28.4,28.4,100,30.27,1.6,SSE,1.2,-,N/A,,Overcast,150,2013-12-30 05:15:00
6:45 AM,30.2,28.4,93,30.27,1.4,SW,1.2,-,N/A,,Overcast,220,2013-12-30 05:45:00
7:00 AM,30,29,94,30.31,1,SW,2.2,,,,Mist,220,2013-12-30 06:00:00
7:15 AM,30.2,28.4,93,30.30,1.1,South,1.2,-,N/A,,Overcast,190,2013-12-30 06:15:00
7:45 AM,28.4,28.4,100,30.30,1.1,East,2.3,-,N/A,,Overcast,100,2013-12-30 06:45:00
8:00 AM,29,28,94,30.32,1,East,2.2,,,,Mist,100,2013-12-30 07:00:00
8:15 AM,30.2,28.4,93,30.30,1.1,East,2.3,-,N/A,,Overcast,100,2013-12-30 07:15:00
8:45 AM,32.0,30.2,93,30.30,1.8,Calm,Calm,-,N/A,,Overcast,0,2013-12-30 07:45:00
9:00 AM,31,30,96,30.33,2,Calm,Calm,,,,Mist,,2013-12-30 08:00:00
9:00 AM,-9999,-9999,N/A,-9999,1.9,Variable,3.5,-,N/A,,Mist,0,2013-12-30 08:00:00
9:06 AM,37.4,35.6,93,30.33,-9999.0,NE,5.8,-,N/A,,Unknown,50,2013-12-30 08:06:00
9:15 AM,37.4,37.4,100,30.30,-9999.0,NE,6.9,-,N/A,,Overcast,40,2013-12-30 08:15:00
9:42 AM,42.8,35.6,76,30.33,3.7,NNE,9.2,-,N/A,,Overcast,20,2013-12-30 08:42:00
9:45 AM,42.8,35.6,76,30.30,-9999.0,NNE,10.4,-,N/A,,Clear,20,2013-12-30 08:45:00
10:00 AM,42,36,72,30.33,6,NNE,8.9,,,,Partly Cloudy,20,2013-12-30 09:00:00
10:15 AM,42.8,35.6,76,30.30,-9999.0,NNE,12.7,-,N/A,,Clear,30,2013-12-30 09:15:00
10:45 AM,46.4,35.6,66,30.30,-9999.0,NNE,9.2,-,N/A,,Clear,30,2013-12-30 09:45:00
11:00 AM,46,36,59,30.32,12,NNE,8.9,,,,Partly Cloudy,30,2013-12-30 10:00:00
11:15 AM,46.4,35.6,66,30.30,-9999.0,NE,12.7,-,N/A,,Clear,40,2013-12-30 10:15:00
11:45 AM,46.4,35.6,66,30.30,-9999.0,NNE,11.5,-,N/A,,Clear,30,2013-12-30 10:45:00
12:00 PM,47,35,53,30.32,16,NNE,11.2,,,,Partly Cloudy,30,2013-12-30 11:00:00
12:00 PM,-9999,-9999,N/A,-9999,-9999.0,NE,11.5,-,N/A,,Clear,40,2013-12-30 11:00:00
12:15 PM,48.2,35.6,62,30.30,-9999.0,NNE,9.2,-,N/A,,Clear,20,2013-12-30 11:15:00
12:45 PM,50.0,33.8,54,30.30,-9999.0,North,10.4,-,N/A,,Clear,10,2013-12-30 11:45:00
1:00 PM,49,35,46,30.30,19,North,11.2,,,,Partly Cloudy,10,2013-12-30 12:00:00
1:15 PM,50.0,33.8,54,30.30,-9999.0,NNE,11.5,-,N/A,,Clear,30,2013-12-30 12:15:00
1:45 PM,50.0,33.8,54,30.30,-9999.0,NNE,11.5,-,N/A,,Clear,30,2013-12-30 12:45:00
2:00 PM,49,35,46,30.30,19,NNE,11.2,,,,Partly Cloudy,30,2013-12-30 13:00:00
2:15 PM,48.2,33.8,58,30.30,-9999.0,NNE,12.7,-,N/A,,Clear,30,2013-12-30 13:15:00
2:45 PM,48.2,33.8,58,30.30,-9999.0,NE,12.7,-,N/A,,Clear,40,2013-12-30 13:45:00
3:00 PM,48,34,46,30.30,19,NE,11.2,,,,Partly Cloudy,40,2013-12-30 14:00:00
3:15 PM,46.4,33.8,62,30.30,-9999.0,NNE,11.5,-,N/A,,Clear,30,2013-12-30 14:15:00
3:45 PM,46.4,33.8,62,30.30,-9999.0,NNE,10.4,-,N/A,,Clear,20,2013-12-30 14:45:00
4:00 PM,46,33,50,30.31,12,NNE,8.9,,,,Partly Cloudy,20,2013-12-30 15:00:00
4:15 PM,44.6,33.8,66,30.30,-9999.0,NNE,9.2,-,N/A,,Clear,20,2013-12-30 15:15:00
4:45 PM,44.6,33.8,66,30.30,-9999.0,North,9.2,-,N/A,,Clear,10,2013-12-30 15:45:00
5:00 PM,45,33,53,30.32,12,North,8.9,,,,Partly Cloudy,10,2013-12-30 16:00:00
5:00 PM,-9999,-9999,N/A,-9999,-9999.0,North,-9999.0,-,N/A,,Unknown,0,2013-12-30 16:00:00
6:00 PM,44,34,57,30.32,,NNE,11.2,,,,,30,2013-12-30 17:00:00
7:00 PM,43,33,57,30.32,,NNE,13.4,,,,,30,2013-12-30 18:00:00
8:00 PM,41,33,62,30.32,,NNE,8.9,,,,,30,2013-12-30 19:00:00
9:00 PM,40,32,63,30.33,,NNE,6.7,,,,,30,2013-12-30 20:00:00
10:00 PM,40,32,64,30.34,,NE,8.9,,,,,50,2013-12-30 21:00:00
11:00 PM,38,32,71,30.33,,NE,4.5,,,,,50,2013-12-30 22:00:00